This is the latest recevied weather packets stored in our database for station/object SA3PJN-WX. If no packets are shown the sender has not sent any weather packets the latest 10 day(s).
| Time | Temp. | Humidity | Pressure | Rain* | Wind** | Luminosity | Snow |
|---|---|---|---|---|---|---|---|
| 1777626116 | 16.67° C | 51% | 974.5 hPa | - | - | - | - |
| 1777625817 | 16.67° C | 51% | 974.6 hPa | - | - | - | - |
| 1777625516 | 16.11° C | 50% | 974.4 hPa | - | - | - | - |
| 1777625216 | 16.11° C | 51% | 974.6 hPa | - | - | - | - |
| 1777624916 | 16.67° C | 48% | 974.8 hPa | - | - | - | - |
| 1777624616 | 17.22° C | 46% | 974.7 hPa | - | - | - | - |
| 1777624316 | 18.89° C | 48% | 974.8 hPa | - | - | - | - |
| 1777624016 | 19.44° C | 48% | 974.9 hPa | - | - | - | - |
| 1777623716 | 18.89° C | 47% | 975 hPa | - | - | - | - |
| 1777623416 | 18.89° C | 49% | 975 hPa | - | - | - | - |
| 1777623116 | 18.33° C | 49% | 975 hPa | - | - | - | - |
| 1777622816 | 17.78° C | 48% | 974.9 hPa | - | - | - | - |
| 1777622486 | 18.33° C | 51% | 975.2 hPa | - | - | - | - |
| 1777622186 | 18.33° C | 50% | 975.2 hPa | - | - | - | - |
| 1777621886 | 18.33° C | 48% | 975.3 hPa | - | - | - | - |
| 1777621586 | 17.78° C | 50% | 975.3 hPa | - | - | - | - |
| 1777621286 | 18.33° C | 50% | 975.3 hPa | - | - | - | - |
| 1777620986 | 18.33° C | 54% | 975.4 hPa | - | - | - | - |
| 1777620686 | 17.78° C | 54% | 975.4 hPa | - | - | - | - |
| 1777620386 | 17.22° C | 54% | 975.5 hPa | - | - | - | - |
| 1777620086 | 17.78° C | 53% | 975.4 hPa | - | - | - | - |
| 1777619786 | 17.78° C | 53% | 975.5 hPa | - | - | - | - |
| 1777619486 | 17.22° C | 54% | 975.4 hPa | - | - | - | - |
| 1777619186 | 17.22° C | 54% | 975.4 hPa | - | - | - | - |
| 1777618886 | 16.67° C | 57% | 975.5 hPa | - | - | - | - |
* Rain since midnight (hover to see other rain measurements)
** Current wind speed in m/s (hover to see current wind gust speed)